This demonstration page uses our WeatherBlox Daily Observations layout. Learn more.

Left ArrowRight Arrow

41.86663, -103.66717

Hourly Observations for September 2, 2018

Temp ( °F °C ) Dew Point ( °F °C ) Humidity (%) Winds ( mph kmh ) Pressure ( in mb ) Visibility ( mi km ) Precip ( " mm )
12:53 am 00:53 Clear 55 12.8 52 11.1 90 90 NNE 7 11 29.83 1010 10 16 N/A
1:53 am 01:53 Clear 51 10.6 50 10 96 96 NNW 6 9 29.83 1010 10 16 N/A
2:53 am 02:53 Clear 52 11.1 51 10.6 97 97 NW 6 9 29.82 1010 10 16 N/A
3:53 am 03:53 Clear 51 10.6 51 10.6 100 100 W 5 7 29.84 1011 10 16 N/A
4:53 am 04:53 Clear 52 11.1 50 10 93 93 E 17 28 29.91 1013 10 16 N/A
5:53 am 05:53 Clear 55 12.8 51 10.6 87 87 N 9 15 29.89 1012 10 16 N/A
6:53 am 06:53 Sunny 57 13.9 46 7.8 67 67 NE 10 17 29.94 1014 10 16 N/A
7:53 am 07:53 Sunny 60 15.6 44 6.7 56 56 VRB 5 7 29.98 1015 10 16 N/A
8:53 am 08:53 Sunny 66 18.9 53 11.7 63 63 VRB 5 7 29.98 1015 10 16 N/A
9:24 am 09:24 Mostly Cloudy 68 20 55 12.8 63 63 NE 9 15 29.91 1013 10 16 N/A
9:53 am 09:53 Mostly Cloudy 69 20.6 55 12.8 61 61 ENE 9 15 29.99 1016 10 16 N/A
10:33 am 10:33 Partly Cloudy 71 21.7 56 13.3 59 59 E 8 13 29.91 1013 10 16 N/A
10:53 am 10:53 Mostly Sunny 72 22.2 56 13.3 57 57 NE 12 19 30.00 1016 10 16 N/A
11:53 am 11:53 Sunny 75 23.9 57 13.9 54 54 ENE 7 11 29.98 1015 10 16 N/A
12:53 pm 12:53 Sunny 78 25.6 58 14.4 50 50 ENE 7 11 29.97 1015 10 16 N/A
1:53 pm 13:53 Sunny 79 26.1 58 14.4 49 49 E 9 15 29.97 1015 10 16 N/A
2:53 pm 14:53 Sunny 79 26.1 57 13.9 47 47 ESE 7 11 29.96 1015 10 16 N/A
3:53 pm 15:53 Sunny 80 26.7 59 15 49 49 ESE 10 17 29.94 1014 10 16 N/A
4:53 pm 16:53 Sunny 80 26.7 56 13.3 44 44 SE 12 19 29.92 1013 10 16 N/A
5:53 pm 17:53 Sunny 80 26.7 58 14.4 47 47 ESE 7 11 29.91 1013 10 16 N/A
6:53 pm 18:53 Sunny 76 24.4 59 15 56 56 E 9 15 29.91 1013 10 16 N/A
7:53 pm 19:53 Clear 69 20.6 60 15.6 73 73 E 10 17 29.93 1013 10 16 N/A
8:53 pm 20:53 Clear 66 18.9 61 16.1 84 84 ESE 8 13 29.96 1014 10 16 N/A
9:53 pm 21:53 Clear 63 17.2 61 16.1 93 93 E 6 9 29.98 1015 10 16 N/A
10:53 pm 22:53 Clear 63 17.2 62 16.7 97 97 E 8 13 29.97 1015 10 16 N/A
11:53 pm 23:53 Clear 63 17.2 62 16.7 97 97 E 9 15 29.96 1015 10 16 N/A

Powered by AerisWeather